FW9225 Weather Reports


Display with metric or nautical units.
time (UTC)temp
F
wind
direction
speed
MPH
gust
MPH
rain 1hr
in
rain 24hr
in
rain mn
in
humidity
%
barometer
mb
20260506171541 61 91 4.0 12.0 0.01 0.16 0.16 89 1008.3
20260506170057 61 146 3.0 13.0 0.03 0.16 0.16 90 1008.6
20260506164542 61 107 3.0 14.0 0.05 0.16 0.16 90 1008.5
20260506163044 61 342 1.0 13.0 0.05 0.15 0.15 90 1008.6
20260506161542 61 115 1.0 11.0 0.07 0.15 0.15 90 1008.6
20260506160042 61 110 2.0 10.0 0.08 0.13 0.13 89 1009.1
20260506154541 61 103 1.0 7.0 0.08 0.11 0.11 89 1009.8
20260506153044 61 0 1.0 14.0 0.07 0.09 0.09 88 1009.9
20260506151544 61 118 4.0 11.0 0.08 0.08 0.08 86 1009.7
20260506150040 61 0 2.0 9.0 0.05 0.05 0.05 85 1009.4
20260506144550 62 86 2.0 11.0 0.03 0.03 0.03 84 1009.7
20260506143035 62 39 3.0 10.0 0.02 0.02 0.02 81 1009.6
20260506141541 63 113 3.0 10.0 0.00 0.00 0.00 78 1009.8
20260506140045 65 79 4.0 18.0 0.00 0.00 0.00 75 1009.7
20260506134541 65 101 3.0 9.0 0.00 0.00 0.00 74 1009.5
20260506133040 65 93 3.0 10.0 0.00 0.00 0.00 75 1009.3
20260506131549 65 129 4.0 10.0 0.00 0.00 0.00 75 1009.5
20260506130049 65 71 3.0 16.0 0.00 0.00 0.00 75 1009.7
20260506124538 65 77 3.0 14.0 0.00 0.00 0.00 74 1009.9
20260506123038 65 54 5.0 17.0 0.00 0.00 0.00 74 1009.6
20260506121538 65 112 2.0 12.0 0.00 0.00 0.00 75 1009.6
20260506120050 65 42 3.0 9.0 0.00 0.00 0.00 75 1009.3
20260506114542 65 56 4.0 11.0 0.00 0.00 0.00 75 1009.5
20260506113052 64 342 3.0 11.0 0.00 0.00 0.00 76 1009.3
20260506111539 64 140 2.0 11.0 0.00 0.00 0.00 76 1009.3
20260506110035 64 141 3.0 11.0 0.00 0.00 0.00 76 1009.2
20260506104543 63 53 2.0 10.0 0.00 0.00 0.00 77 1009.0
20260506103048 63 51 2.0 9.0 0.00 0.00 0.00 77 1009.1
20260506101539 63 138 1.0 7.0 0.00 0.00 0.00 77 1008.9
20260506100040 64 109 2.0 13.0 0.00 0.00 0.00 76 1008.8
20260506094536 64 107 2.0 10.0 0.00 0.00 0.00 76 1009.0
20260506093042 64 112 0.0 9.0 0.00 0.00 0.00 75 1009.1
20260506091542 65 84 1.0 10.0 0.00 0.00 0.00 75 1009.0
20260506090047 65 77 0.0 10.0 0.00 0.00 0.00 74 1009.1
20260506084553 66 115 3.0 13.0 0.00 0.00 0.00 74 1009.2
20260506083037 65 58 3.0 8.0 0.00 0.00 0.00 75 1009.1
20260506081543 65 53 1.0 9.0 0.00 0.00 0.00 75 1009.3
20260506073048 65 112 3.0 11.0 0.00 0.00 0.00 75 1009.4
20260506071559 66 58 1.0 9.0 0.00 0.00 0.00 74 1009.5
20260506061553 67 342 3.0 9.0 0.00 0.00 0.00 72 1009.8
20260506044544 66 115 1.0 7.0 0.00 0.00 0.00 69 1010.3
20260506043042 66 0 2.0 10.0 0.00 0.00 0.00 69 1010.3
20260506041542 66 120 2.0 9.0 0.00 0.00 0.00 68 1010.4
20260506040042 66 131 0.0 4.0 0.00 0.00 0.00 67 1010.3
20260506034550 67 0 1.0 5.0 0.00 0.00 0.00 66 1010.4
20260506033038 68 121 1.0 9.0 0.00 0.00 0.00 64 1010.1
20260506031547 68 113 1.0 7.0 0.00 0.00 0.00 62 1010.2
20260506030041 69 122 2.0 10.0 0.00 0.00 0.00 61 1010.2
20260506024553 69 115 1.0 9.0 0.00 0.00 0.00 59 1010.2
20260506023038 70 342 1.0 8.0 0.00 0.00 0.00 58 1010.3
20260506021547 70 342 1.0 6.0 0.00 0.00 0.00 56 1010.1
20260506020042 71 115 1.0 9.0 0.00 0.00 0.00 55 1010.1
20260506014541 72 109 1.0 10.0 0.00 0.00 0.00 54 1009.8
20260506013050 72 105 4.0 13.0 0.00 0.00 0.00 52 1009.6
20260506011538 72 342 2.0 12.0 0.00 0.00 0.00 51 1009.5
20260506010034 73 342 2.0 8.0 0.00 0.00 0.00 50 1009.4
20260506004540 73 342 2.0 12.0 0.00 0.00 0.00 49 1009.3
20260506003041 74 342 2.0 11.0 0.00 0.00 0.00 48 1009.3
20260506001542 75 342 3.0 11.0 0.00 0.00 0.00 47 1009.1
20260506000044 75 342 3.0 14.0 0.00 0.00 0.00 46 1009.0
20260505234538 76 108 2.0 12.0 0.00 0.00 0.00 43 1008.8
20260505233041 77 6 3.0 9.0 0.00 0.00 0.00 42 1008.7
20260505231559 77 73 1.0 7.0 0.00 0.00 0.00 41 1008.9
20260505230040 78 115 3.0 11.0 0.00 0.00 0.00 40 1008.7
20260505224539 79 342 4.0 15.0 0.00 0.00 0.00 39 1008.7
20260505223047 79 70 4.0 15.0 0.00 0.00 0.00 41 1008.7
20260505221539 79 111 4.0 17.0 0.00 0.00 0.00 40 1008.8
20260505220042 80 342 9.0 23.0 0.00 0.00 0.00 38 1008.8
20260505214600 81 109 5.0 14.0 0.00 0.00 0.00 38 1008.5
20260505213042 81 114 5.0 18.0 0.00 0.00 0.00 39 1008.6
20260505211543 81 103 5.0 16.0 0.00 0.00 0.00 37 1008.5
20260505210044 81 342 6.0 17.0 0.00 0.00 0.00 37 1008.5
20260505204549 81 44 4.0 16.0 0.00 0.00 0.00 37 1008.3
20260505203039 81 113 6.0 16.0 0.00 0.00 0.00 37 1008.4
20260505201543 81 342 4.0 15.0 0.00 0.00 0.00 37 1008.5
20260505200052 81 92 4.0 14.0 0.00 0.00 0.00 40 1008.6
20260505194538 81 342 6.0 19.0 0.00 0.00 0.00 38 1008.8
20260505193039 81 248 4.0 11.0 0.00 0.00 0.00 36 1009.0
20260505191544 80 68 5.0 17.0 0.00 0.00 0.00 38 1009.1
20260505190033 80 342 7.0 22.0 0.00 0.00 0.00 37 1009.2
20260505184542 81 342 4.0 17.0 0.00 0.00 0.00 38 1009.6
20260505183053 80 61 6.0 12.0 0.00 0.00 0.00 42 1009.7
20260505181550 80 342 4.0 13.0 0.00 0.00 0.00 43 1009.9
20260505180052 80 108 6.0 16.0 0.00 0.00 0.00 40 1010.2
20260505174555 80 33 6.0 13.0 0.00 0.00 0.00 41 1010.2
20260505173038 80 75 3.0 11.0 0.00 0.00 0.00 45 1010.3